Location: Friaudour
(46.0460°N, 1.2873°E)
Time: 13:43:53
(UTC+00:00)

Spot 4 Rocket - Pass Details

Date: 24 October 2020
Orbit: 776 x 781 km, 98.7° (Epoch: 29 November)

Event Time Altitude Azimuth Distance (km) Brightness Sun altitude
Rises 03:34:50 0° 11° (N) 3,269 7.6 -29.9°
Reaches altitude 10° 03:37:10 10° 9° (N) 2,338 6.7 -29.5°
Enters shadow 03:39:57 32° 359° (N) 1,309 5.2 -29.1°
